Location: Skanderborg
(56.0313°N, 9.9317°E)
Time: 00:00:20
(UTC+00:00)

Okean 2 Rocket - Pass Details

Date: 15 August 2020
Orbit: 616 x 642 km, 82.5° (Epoch: 23 September)

Event Time Altitude Azimuth Distance (km) Brightness Sun altitude
Exits shadow 22:53:44 36° 123° (ESE) 1,021 3.8 -20.0°
Maximum altitude 22:54:41 41° 92° (E) 938 3.8 -20.0°
Drops below altitude 10° 22:58:56 10° 23° (NNE) 2,049 6.6 -20.1°
Sets 23:01:17 0° 17° (NNE) 2,965 7.8 -20.1°
